Powrót do katalogu

LINUSS1

AktywnyNaukaGEO
NORAD 55246·PAYLOAD·🇺🇸 United States

Wystrzelony Nov 1, 2022 z Cape Canaveral Space Force Station

Loading…

TLE

ŚwieżeSource: Space-Track

Epoka: Sep 14, 2026, 13:18 UTC

1 55246U 22144G   26257.55423508  .00000005  00000-0  00000-0 0  9994
2 55246   5.5957  63.4568 0008560 301.4426  36.9374  0.99055001 12549

Śledź LINUSS1 w czasie rzeczywistym z AllMySat

Download on the App Store